This is the latest recevied weather packets stored in our database for station/object SP1BMW-13. If no packets are shown the sender has not sent any weather packets the latest 1 day(s).
| Time | Temp. | Humidity | Pressure | Rain* | Wind** | Luminosity | Snow |
|---|---|---|---|---|---|---|---|
| 1778021566 | 11.11° C | 92% | 1007.8 hPa | 0 mm | 0 m/s | 0 W/m² | - |
| 1778021506 | 11.11° C | 92% | 1007.5 hPa | 0 mm | 0.89 m/s, 39° | 0 W/m² | - |
| 1778021446 | 11.11° C | 92% | 1007.8 hPa | 0 mm | 0 m/s | 0 W/m² | - |
| 1778021386 | 11.11° C | 92% | 1007.6 hPa | 0 mm | 0 m/s | 0 W/m² | - |
| 1778021326 | 11.11° C | 92% | 1007.8 hPa | 0 mm | 0.45 m/s, 73° | 0 W/m² | - |
| 1778021266 | 11.11° C | 92% | 1007.7 hPa | 0 mm | 0.89 m/s, 43° | 0 W/m² | - |
| 1778021206 | 11.11° C | 92% | 1007.7 hPa | 0 mm | 0.89 m/s, 334° | 0 W/m² | - |
| 1778021146 | 11.11° C | 92% | 1007.5 hPa | 0 mm | 0.45 m/s, 341° | 0 W/m² | - |
| 1778021086 | 11.11° C | 92% | 1007.6 hPa | 0 mm | 0 m/s | 0 W/m² | - |
| 1778021026 | 11.11° C | 92% | 1007.5 hPa | 0 mm | 0.89 m/s, 335° | 0 W/m² | - |
| 1778020966 | 11.11° C | 92% | 1007.5 hPa | 0 mm | 0 m/s | 0 W/m² | - |
| 1778020906 | 11.11° C | 92% | 1007.6 hPa | 0 mm | 0 m/s | 0 W/m² | - |
| 1778020846 | 11.11° C | 92% | 1007.4 hPa | 0 mm | 0.89 m/s, 51° | 0 W/m² | - |
| 1778020786 | 11.11° C | 92% | 1007.5 hPa | 0 mm | 1.79 m/s, 326° | 0 W/m² | - |
| 1778020726 | 11.11° C | 92% | 1007.5 hPa | 0 mm | 0 m/s | 0 W/m² | - |
| 1778020666 | 11.11° C | 92% | 1007.6 hPa | 0 mm | 0.89 m/s, 55° | 0 W/m² | - |
| 1778020606 | 11.11° C | 92% | 1007.7 hPa | 0 mm | 0.45 m/s, 40° | 0 W/m² | - |
| 1778020546 | 11.11° C | 92% | 1007.4 hPa | 0 mm | 0 m/s | 0 W/m² | - |
| 1778020486 | 11.11° C | 92% | 1007.7 hPa | 0 mm | 0 m/s | 0 W/m² | - |
| 1778020426 | 11.11° C | 92% | 1007.7 hPa | 0 mm | 0.89 m/s, 46° | 0 W/m² | - |
| 1778020366 | 11.11° C | 92% | 1007.6 hPa | 0 mm | 0.89 m/s, 325° | 0 W/m² | - |
| 1778020307 | 11.11° C | 92% | 1007.6 hPa | 0 mm | 1.79 m/s, 51° | 0 W/m² | - |
| 1778020246 | 11.11° C | 92% | 1007.8 hPa | 0 mm | 0.89 m/s, 49° | 0 W/m² | - |
| 1778020186 | 11.11° C | 92% | 1007.7 hPa | 0 mm | 0.89 m/s, 48° | 0 W/m² | - |
| 1778020126 | 11.11° C | 92% | 1007.8 hPa | 0 mm | 0.45 m/s, 57° | 0 W/m² | - |
* Rain latest hour (hover to see other rain measurements)
** Current wind speed in m/s (hover to see current wind gust speed)